Data supplied by UK-AIR on 5/4/2008
All Data GMT hour ending 
Status: R =Ratified P=Provisional,P*=As supplied
,,Bottesford,,,,,,,,,,,,,,,,,,,,,,,
Date,time,"Ozone",status,unit
 
01-01-2002,01:00,18,R,ugm-3
01-01-2002,02:00,8,R,ugm-3
01-01-2002,03:00,10,R,ugm-3
01-01-2002,04:00,8,R,ugm-3
01-01-2002,05:00,12,R,ugm-3
01-01-2002,06:00,14,R,ugm-3
01-01-2002,07:00,12,R,ugm-3
01-01-2002,08:00,12,R,ugm-3
01-01-2002,09:00,18,R,ugm-3
01-01-2002,10:00,24,R,ugm-3
01-01-2002,11:00,30,R,ugm-3
01-01-2002,12:00,34,R,ugm-3
01-01-2002,13:00,30,R,ugm-3
01-01-2002,14:00,26,R,ugm-3
01-01-2002,15:00,16,R,ugm-3
01-01-2002,16:00,10,R,ugm-3
01-01-2002,17:00,20,R,ugm-3
01-01-2002,18:00,14,R,ugm-3
01-01-2002,19:00,20,R,ugm-3
01-01-2002,20:00,2,R,ugm-3
01-01-2002,21:00,2,R,ugm-3
01-01-2002,22:00,2,R,ugm-3
01-01-2002,23:00,2,R,ugm-3
01-01-2002,24:00,2,R,ugm-3
02-01-2002,01:00,2,R,ugm-3
02-01-2002,02:00,2,R,ugm-3
02-01-2002,03:00,6,R,ugm-3
02-01-2002,04:00,2,R,ugm-3
02-01-2002,05:00,2,R,ugm-3
02-01-2002,06:00,4,R,ugm-3
02-01-2002,07:00,20,R,ugm-3
02-01-2002,08:00,18,R,ugm-3
02-01-2002,09:00,14,R,ugm-3
02-01-2002,10:00,10,R,ugm-3
02-01-2002,11:00,16,R,ugm-3
02-01-2002,12:00,18,R,ugm-3
02-01-2002,13:00,30,R,ugm-3
02-01-2002,14:00,32,R,ugm-3
02-01-2002,15:00,32,R,ugm-3
02-01-2002,16:00,24,R,ugm-3
02-01-2002,17:00,18,R,ugm-3
02-01-2002,18:00,26,R,ugm-3
02-01-2002,19:00,34,R,ugm-3
02-01-2002,20:00,28,R,ugm-3
02-01-2002,21:00,28,R,ugm-3
02-01-2002,22:00,30,R,ugm-3
02-01-2002,23:00,32,R,ugm-3
02-01-2002,24:00,28,R,ugm-3
03-01-2002,01:00,22,R,ugm-3
03-01-2002,02:00,20,R,ugm-3
03-01-2002,03:00,20,R,ugm-3
03-01-2002,04:00,14,R,ugm-3
03-01-2002,05:00,20,R,ugm-3
03-01-2002,06:00,22,R,ugm-3
03-01-2002,07:00,22,R,ugm-3
03-01-2002,08:00,26,R,ugm-3
03-01-2002,09:00,26,R,ugm-3
03-01-2002,10:00,34,R,ugm-3
03-01-2002,11:00,36,R,ugm-3
03-01-2002,12:00,40,R,ugm-3
03-01-2002,13:00,34,R,ugm-3
03-01-2002,14:00,30,R,ugm-3
03-01-2002,15:00,24,R,ugm-3
03-01-2002,16:00,16,R,ugm-3
03-01-2002,17:00,8,R,ugm-3
03-01-2002,18:00,6,R,ugm-3
03-01-2002,19:00,8,R,ugm-3
03-01-2002,20:00,8,R,ugm-3
03-01-2002,21:00,4,R,ugm-3
03-01-2002,22:00,2,R,ugm-3
03-01-2002,23:00,4,R,ugm-3
03-01-2002,24:00,2,R,ugm-3
04-01-2002,01:00,2,R,ugm-3
04-01-2002,02:00,4,R,ugm-3
04-01-2002,03:00,8,R,ugm-3
04-01-2002,04:00,10,R,ugm-3
04-01-2002,05:00,12,R,ugm-3
04-01-2002,06:00,18,R,ugm-3
04-01-2002,07:00,10,R,ugm-3
04-01-2002,08:00,2,R,ugm-3
04-01-2002,09:00,2,R,ugm-3
04-01-2002,10:00,4,R,ugm-3
04-01-2002,11:00,14,R,ugm-3
04-01-2002,12:00,,,
04-01-2002,13:00,,,
04-01-2002,14:00,,,
04-01-2002,15:00,12,R,ugm-3
04-01-2002,16:00,6,R,ugm-3
04-01-2002,17:00,2,R,ugm-3
04-01-2002,18:00,2,R,ugm-3
04-01-2002,19:00,2,R,ugm-3
04-01-2002,20:00,2,R,ugm-3
04-01-2002,21:00,2,R,ugm-3
04-01-2002,22:00,2,R,ugm-3
04-01-2002,23:00,0,R,ugm-3
04-01-2002,24:00,0,R,ugm-3
05-01-2002,01:00,0,R,ugm-3
05-01-2002,02:00,0,R,ugm-3
05-01-2002,03:00,0,R,ugm-3
05-01-2002,04:00,0,R,ugm-3
05-01-2002,05:00,0,R,ugm-3
05-01-2002,06:00,0,R,ugm-3
05-01-2002,07:00,0,R,ugm-3
05-01-2002,08:00,0,R,ugm-3
05-01-2002,09:00,2,R,ugm-3
05-01-2002,10:00,6,R,ugm-3
05-01-2002,11:00,8,R,ugm-3
05-01-2002,12:00,14,R,ugm-3
05-01-2002,13:00,18,R,ugm-3
05-01-2002,14:00,22,R,ugm-3
05-01-2002,15:00,18,R,ugm-3
05-01-2002,16:00,14,R,ugm-3
05-01-2002,17:00,10,R,ugm-3
05-01-2002,18:00,6,R,ugm-3
05-01-2002,19:00,8,R,ugm-3
05-01-2002,20:00,0,R,ugm-3
05-01-2002,21:00,0,R,ugm-3
05-01-2002,22:00,0,R,ugm-3
05-01-2002,23:00,2,R,ugm-3
05-01-2002,24:00,0,R,ugm-3
06-01-2002,01:00,2,R,ugm-3
06-01-2002,02:00,0,R,ugm-3
06-01-2002,03:00,0,R,ugm-3
06-01-2002,04:00,0,R,ugm-3
06-01-2002,05:00,6,R,ugm-3
06-01-2002,06:00,14,R,ugm-3
06-01-2002,07:00,14,R,ugm-3
06-01-2002,08:00,8,R,ugm-3
06-01-2002,09:00,2,R,ugm-3
06-01-2002,10:00,6,R,ugm-3
06-01-2002,11:00,10,R,ugm-3
06-01-2002,12:00,12,R,ugm-3
06-01-2002,13:00,14,R,ugm-3
06-01-2002,14:00,12,R,ugm-3
06-01-2002,15:00,4,R,ugm-3
06-01-2002,16:00,2,R,ugm-3
06-01-2002,17:00,0,R,ugm-3
06-01-2002,18:00,0,R,ugm-3
06-01-2002,19:00,0,R,ugm-3
06-01-2002,20:00,0,R,ugm-3
06-01-2002,21:00,0,R,ugm-3
06-01-2002,22:00,0,R,ugm-3
06-01-2002,23:00,6,R,ugm-3
06-01-2002,24:00,8,R,ugm-3
07-01-2002,01:00,8,R,ugm-3
07-01-2002,02:00,10,R,ugm-3
07-01-2002,03:00,14,R,ugm-3
07-01-2002,04:00,12,R,ugm-3
07-01-2002,05:00,6,R,ugm-3
07-01-2002,06:00,10,R,ugm-3
07-01-2002,07:00,22,R,ugm-3
07-01-2002,08:00,18,R,ugm-3
07-01-2002,09:00,8,R,ugm-3
07-01-2002,10:00,18,R,ugm-3
07-01-2002,11:00,18,R,ugm-3
07-01-2002,12:00,16,R,ugm-3
07-01-2002,13:00,16,R,ugm-3
07-01-2002,14:00,22,R,ugm-3
07-01-2002,15:00,16,R,ugm-3
07-01-2002,16:00,14,R,ugm-3
07-01-2002,17:00,14,R,ugm-3
07-01-2002,18:00,8,R,ugm-3
07-01-2002,19:00,6,R,ugm-3
07-01-2002,20:00,4,R,ugm-3
07-01-2002,21:00,2,R,ugm-3
07-01-2002,22:00,10,R,ugm-3
07-01-2002,23:00,18,R,ugm-3
07-01-2002,24:00,20,R,ugm-3
08-01-2002,01:00,8,R,ugm-3
08-01-2002,02:00,6,R,ugm-3
08-01-2002,03:00,6,R,ugm-3
08-01-2002,04:00,6,R,ugm-3
08-01-2002,05:00,0,R,ugm-3
08-01-2002,06:00,0,R,ugm-3
08-01-2002,07:00,0,R,ugm-3
08-01-2002,08:00,0,R,ugm-3
08-01-2002,09:00,0,R,ugm-3
08-01-2002,10:00,2,R,ugm-3
08-01-2002,11:00,4,R,ugm-3
08-01-2002,12:00,8,R,ugm-3
08-01-2002,13:00,2,R,ugm-3
08-01-2002,14:00,6,R,ugm-3
08-01-2002,15:00,8,R,ugm-3
08-01-2002,16:00,8,R,ugm-3
08-01-2002,17:00,4,R,ugm-3
08-01-2002,18:00,4,R,ugm-3
08-01-2002,19:00,2,R,ugm-3
08-01-2002,20:00,10,R,ugm-3
08-01-2002,21:00,6,R,ugm-3
08-01-2002,22:00,6,R,ugm-3
08-01-2002,23:00,10,R,ugm-3
08-01-2002,24:00,18,R,ugm-3
09-01-2002,01:00,18,R,ugm-3
09-01-2002,02:00,12,R,ugm-3
09-01-2002,03:00,6,R,ugm-3
09-01-2002,04:00,8,R,ugm-3
09-01-2002,05:00,8,R,ugm-3
09-01-2002,06:00,10,R,ugm-3
09-01-2002,07:00,6,R,ugm-3
09-01-2002,08:00,2,R,ugm-3
09-01-2002,09:00,2,R,ugm-3
09-01-2002,10:00,6,R,ugm-3
09-01-2002,11:00,4,R,ugm-3
09-01-2002,12:00,8,R,ugm-3
09-01-2002,13:00,14,R,ugm-3
09-01-2002,14:00,10,R,ugm-3
09-01-2002,15:00,12,R,ugm-3
09-01-2002,16:00,4,R,ugm-3
09-01-2002,17:00,0,R,ugm-3
09-01-2002,18:00,0,R,ugm-3
09-01-2002,19:00,2,R,ugm-3
09-01-2002,20:00,0,R,ugm-3
09-01-2002,21:00,0,R,ugm-3
09-01-2002,22:00,0,R,ugm-3
09-01-2002,23:00,2,R,ugm-3
09-01-2002,24:00,0,R,ugm-3
10-01-2002,01:00,2,R,ugm-3
10-01-2002,02:00,2,R,ugm-3
10-01-2002,03:00,2,R,ugm-3
10-01-2002,04:00,2,R,ugm-3
10-01-2002,05:00,0,R,ugm-3
10-01-2002,06:00,2,R,ugm-3
10-01-2002,07:00,2,R,ugm-3
10-01-2002,08:00,2,R,ugm-3
10-01-2002,09:00,2,R,ugm-3
10-01-2002,10:00,2,R,ugm-3
10-01-2002,11:00,2,R,ugm-3
10-01-2002,12:00,6,R,ugm-3
10-01-2002,13:00,12,R,ugm-3
10-01-2002,14:00,16,R,ugm-3
10-01-2002,15:00,16,R,ugm-3
10-01-2002,16:00,6,R,ugm-3
10-01-2002,17:00,2,R,ugm-3
10-01-2002,18:00,0,R,ugm-3
10-01-2002,19:00,0,R,ugm-3
10-01-2002,20:00,0,R,ugm-3
10-01-2002,21:00,0,R,ugm-3
10-01-2002,22:00,2,R,ugm-3
10-01-2002,23:00,0,R,ugm-3
10-01-2002,24:00,2,R,ugm-3
11-01-2002,01:00,0,R,ugm-3
11-01-2002,02:00,0,R,ugm-3
11-01-2002,03:00,0,R,ugm-3
11-01-2002,04:00,0,R,ugm-3
11-01-2002,05:00,0,R,ugm-3
11-01-2002,06:00,2,R,ugm-3
11-01-2002,07:00,4,R,ugm-3
11-01-2002,08:00,0,R,ugm-3
11-01-2002,09:00,2,R,ugm-3
11-01-2002,10:00,4,R,ugm-3
11-01-2002,11:00,6,R,ugm-3
11-01-2002,12:00,6,R,ugm-3
11-01-2002,13:00,8,R,ugm-3
11-01-2002,14:00,6,R,ugm-3
11-01-2002,15:00,6,R,ugm-3
11-01-2002,16:00,4,R,ugm-3
11-01-2002,17:00,2,R,ugm-3
11-01-2002,18:00,2,R,ugm-3
11-01-2002,19:00,2,R,ugm-3
11-01-2002,20:00,4,R,ugm-3
11-01-2002,21:00,6,R,ugm-3
11-01-2002,22:00,4,R,ugm-3
11-01-2002,23:00,10,R,ugm-3
11-01-2002,24:00,28,R,ugm-3
12-01-2002,01:00,28,R,ugm-3
12-01-2002,02:00,30,R,ugm-3
12-01-2002,03:00,28,R,ugm-3
12-01-2002,04:00,26,R,ugm-3
12-01-2002,05:00,32,R,ugm-3
12-01-2002,06:00,30,R,ugm-3
12-01-2002,07:00,30,R,ugm-3
12-01-2002,08:00,30,R,ugm-3
12-01-2002,09:00,36,R,ugm-3
12-01-2002,10:00,46,R,ugm-3
12-01-2002,11:00,44,R,ugm-3
12-01-2002,12:00,46,R,ugm-3
12-01-2002,13:00,46,R,ugm-3
12-01-2002,14:00,40,R,ugm-3
12-01-2002,15:00,32,R,ugm-3
12-01-2002,16:00,34,R,ugm-3
12-01-2002,17:00,38,R,ugm-3
12-01-2002,18:00,46,R,ugm-3
12-01-2002,19:00,46,R,ugm-3
12-01-2002,20:00,52,R,ugm-3
12-01-2002,21:00,52,R,ugm-3
12-01-2002,22:00,52,R,ugm-3
12-01-2002,23:00,46,R,ugm-3
12-01-2002,24:00,44,R,ugm-3
13-01-2002,01:00,42,R,ugm-3
13-01-2002,02:00,42,R,ugm-3
13-01-2002,03:00,44,R,ugm-3
13-01-2002,04:00,46,R,ugm-3
13-01-2002,05:00,46,R,ugm-3
13-01-2002,06:00,44,R,ugm-3
13-01-2002,07:00,46,R,ugm-3
13-01-2002,08:00,46,R,ugm-3
13-01-2002,09:00,46,R,ugm-3
13-01-2002,10:00,46,R,ugm-3
13-01-2002,11:00,46,R,ugm-3
13-01-2002,12:00,46,R,ugm-3
13-01-2002,13:00,50,R,ugm-3
13-01-2002,14:00,56,R,ugm-3
13-01-2002,15:00,52,R,ugm-3
13-01-2002,16:00,52,R,ugm-3
13-01-2002,17:00,50,R,ugm-3
13-01-2002,18:00,48,R,ugm-3
13-01-2002,19:00,46,R,ugm-3
13-01-2002,20:00,48,R,ugm-3
13-01-2002,21:00,42,R,ugm-3
13-01-2002,22:00,36,R,ugm-3
13-01-2002,23:00,38,R,ugm-3
13-01-2002,24:00,40,R,ugm-3
14-01-2002,01:00,46,R,ugm-3
14-01-2002,02:00,50,R,ugm-3
14-01-2002,03:00,46,R,ugm-3
14-01-2002,04:00,46,R,ugm-3
14-01-2002,05:00,42,R,ugm-3
14-01-2002,06:00,40,R,ugm-3
14-01-2002,07:00,40,R,ugm-3
14-01-2002,08:00,46,R,ugm-3
14-01-2002,09:00,44,R,ugm-3
14-01-2002,10:00,48,R,ugm-3
14-01-2002,11:00,48,R,ugm-3
14-01-2002,12:00,50,R,ugm-3
14-01-2002,13:00,56,R,ugm-3
14-01-2002,14:00,52,R,ugm-3
14-01-2002,15:00,54,R,ugm-3
14-01-2002,16:00,50,R,ugm-3
14-01-2002,17:00,46,R,ugm-3
14-01-2002,18:00,42,R,ugm-3
14-01-2002,19:00,38,R,ugm-3
14-01-2002,20:00,38,R,ugm-3
14-01-2002,21:00,38,R,ugm-3
14-01-2002,22:00,34,R,ugm-3
14-01-2002,23:00,28,R,ugm-3
14-01-2002,24:00,30,R,ugm-3
15-01-2002,01:00,30,R,ugm-3
15-01-2002,02:00,34,R,ugm-3
15-01-2002,03:00,32,R,ugm-3
15-01-2002,04:00,34,R,ugm-3
15-01-2002,05:00,40,R,ugm-3
15-01-2002,06:00,30,R,ugm-3
15-01-2002,07:00,30,R,ugm-3
15-01-2002,08:00,30,R,ugm-3
15-01-2002,09:00,36,R,ugm-3
15-01-2002,10:00,22,R,ugm-3
15-01-2002,11:00,28,R,ugm-3
15-01-2002,12:00,36,R,ugm-3
15-01-2002,13:00,40,R,ugm-3
15-01-2002,14:00,40,R,ugm-3
15-01-2002,15:00,52,R,ugm-3
15-01-2002,16:00,50,R,ugm-3
15-01-2002,17:00,36,R,ugm-3
15-01-2002,18:00,20,R,ugm-3
15-01-2002,19:00,16,R,ugm-3
15-01-2002,20:00,28,R,ugm-3
15-01-2002,21:00,20,R,ugm-3
15-01-2002,22:00,20,R,ugm-3
15-01-2002,23:00,20,R,ugm-3
15-01-2002,24:00,28,R,ugm-3
16-01-2002,01:00,30,R,ugm-3
16-01-2002,02:00,24,R,ugm-3
16-01-2002,03:00,24,R,ugm-3
16-01-2002,04:00,22,R,ugm-3
16-01-2002,05:00,28,R,ugm-3
16-01-2002,06:00,28,R,ugm-3
16-01-2002,07:00,28,R,ugm-3
16-01-2002,08:00,26,R,ugm-3
16-01-2002,09:00,26,R,ugm-3
16-01-2002,10:00,22,R,ugm-3
16-01-2002,11:00,22,R,ugm-3
16-01-2002,12:00,22,R,ugm-3
16-01-2002,13:00,24,R,ugm-3
16-01-2002,14:00,30,R,ugm-3
16-01-2002,15:00,34,R,ugm-3
16-01-2002,16:00,40,R,ugm-3
16-01-2002,17:00,24,R,ugm-3
16-01-2002,18:00,26,R,ugm-3
16-01-2002,19:00,32,R,ugm-3
16-01-2002,20:00,38,R,ugm-3
16-01-2002,21:00,44,R,ugm-3
16-01-2002,22:00,44,R,ugm-3
16-01-2002,23:00,46,R,ugm-3
16-01-2002,24:00,48,R,ugm-3
17-01-2002,01:00,52,R,ugm-3
17-01-2002,02:00,54,R,ugm-3
17-01-2002,03:00,56,R,ugm-3
17-01-2002,04:00,52,R,ugm-3
17-01-2002,05:00,56,R,ugm-3
17-01-2002,06:00,60,R,ugm-3
17-01-2002,07:00,64,R,ugm-3
17-01-2002,08:00,62,R,ugm-3
17-01-2002,09:00,62,R,ugm-3
17-01-2002,10:00,66,R,ugm-3
17-01-2002,11:00,64,R,ugm-3
17-01-2002,12:00,62,R,ugm-3
17-01-2002,13:00,56,R,ugm-3
17-01-2002,14:00,48,R,ugm-3
17-01-2002,15:00,44,R,ugm-3
17-01-2002,16:00,32,R,ugm-3
17-01-2002,17:00,36,R,ugm-3
17-01-2002,18:00,32,R,ugm-3
17-01-2002,19:00,30,R,ugm-3
17-01-2002,20:00,22,R,ugm-3
17-01-2002,21:00,22,R,ugm-3
17-01-2002,22:00,24,R,ugm-3
17-01-2002,23:00,24,R,ugm-3
17-01-2002,24:00,32,R,ugm-3
18-01-2002,01:00,36,R,ugm-3
18-01-2002,02:00,36,R,ugm-3
18-01-2002,03:00,40,R,ugm-3
18-01-2002,04:00,38,R,ugm-3
18-01-2002,05:00,36,R,ugm-3
18-01-2002,06:00,28,R,ugm-3
18-01-2002,07:00,20,R,ugm-3
18-01-2002,08:00,26,R,ugm-3
18-01-2002,09:00,16,R,ugm-3
18-01-2002,10:00,30,R,ugm-3
18-01-2002,11:00,46,R,ugm-3
18-01-2002,12:00,34,R,ugm-3
18-01-2002,13:00,40,R,ugm-3
18-01-2002,14:00,54,R,ugm-3
18-01-2002,15:00,54,R,ugm-3
18-01-2002,16:00,48,R,ugm-3
18-01-2002,17:00,44,R,ugm-3
18-01-2002,18:00,52,R,ugm-3
18-01-2002,19:00,56,R,ugm-3
18-01-2002,20:00,58,R,ugm-3
18-01-2002,21:00,56,R,ugm-3
18-01-2002,22:00,56,R,ugm-3
18-01-2002,23:00,56,R,ugm-3
18-01-2002,24:00,56,R,ugm-3
19-01-2002,01:00,54,R,ugm-3
19-01-2002,02:00,58,R,ugm-3
19-01-2002,03:00,72,R,ugm-3
19-01-2002,04:00,66,R,ugm-3
19-01-2002,05:00,70,R,ugm-3
19-01-2002,06:00,68,R,ugm-3
19-01-2002,07:00,68,R,ugm-3
19-01-2002,08:00,70,R,ugm-3
19-01-2002,09:00,66,R,ugm-3
19-01-2002,10:00,64,R,ugm-3
19-01-2002,11:00,66,R,ugm-3
19-01-2002,12:00,74,R,ugm-3
19-01-2002,13:00,74,R,ugm-3
19-01-2002,14:00,76,R,ugm-3
19-01-2002,15:00,72,R,ugm-3
19-01-2002,16:00,68,R,ugm-3
19-01-2002,17:00,68,R,ugm-3
19-01-2002,18:00,58,R,ugm-3
19-01-2002,19:00,62,R,ugm-3
19-01-2002,20:00,58,R,ugm-3
19-01-2002,21:00,46,R,ugm-3
19-01-2002,22:00,50,R,ugm-3
19-01-2002,23:00,52,R,ugm-3
19-01-2002,24:00,58,R,ugm-3
20-01-2002,01:00,58,R,ugm-3
20-01-2002,02:00,60,R,ugm-3
20-01-2002,03:00,62,R,ugm-3
20-01-2002,04:00,64,R,ugm-3
20-01-2002,05:00,62,R,ugm-3
20-01-2002,06:00,64,R,ugm-3
20-01-2002,07:00,66,R,ugm-3
20-01-2002,08:00,70,R,ugm-3
20-01-2002,09:00,76,R,ugm-3
20-01-2002,10:00,76,R,ugm-3
20-01-2002,11:00,76,R,ugm-3
20-01-2002,12:00,74,R,ugm-3
20-01-2002,13:00,70,R,ugm-3
20-01-2002,14:00,66,R,ugm-3
20-01-2002,15:00,64,R,ugm-3
20-01-2002,16:00,60,R,ugm-3
20-01-2002,17:00,54,R,ugm-3
20-01-2002,18:00,52,R,ugm-3
20-01-2002,19:00,40,R,ugm-3
20-01-2002,20:00,50,R,ugm-3
20-01-2002,21:00,56,R,ugm-3
20-01-2002,22:00,56,R,ugm-3
20-01-2002,23:00,52,R,ugm-3
20-01-2002,24:00,54,R,ugm-3
21-01-2002,01:00,50,R,ugm-3
21-01-2002,02:00,52,R,ugm-3
21-01-2002,03:00,52,R,ugm-3
21-01-2002,04:00,52,R,ugm-3
21-01-2002,05:00,54,R,ugm-3
21-01-2002,06:00,54,R,ugm-3
21-01-2002,07:00,54,R,ugm-3
21-01-2002,08:00,56,R,ugm-3
21-01-2002,09:00,54,R,ugm-3
21-01-2002,10:00,50,R,ugm-3
21-01-2002,11:00,50,R,ugm-3
21-01-2002,12:00,58,R,ugm-3
21-01-2002,13:00,60,R,ugm-3
21-01-2002,14:00,60,R,ugm-3
21-01-2002,15:00,60,R,ugm-3
21-01-2002,16:00,58,R,ugm-3
21-01-2002,17:00,60,R,ugm-3
21-01-2002,18:00,62,R,ugm-3
21-01-2002,19:00,58,R,ugm-3
21-01-2002,20:00,58,R,ugm-3
21-01-2002,21:00,52,R,ugm-3
21-01-2002,22:00,48,R,ugm-3
21-01-2002,23:00,50,R,ugm-3
21-01-2002,24:00,54,R,ugm-3
22-01-2002,01:00,56,R,ugm-3
22-01-2002,02:00,56,R,ugm-3
22-01-2002,03:00,60,R,ugm-3
22-01-2002,04:00,62,R,ugm-3
22-01-2002,05:00,64,R,ugm-3
22-01-2002,06:00,64,R,ugm-3
22-01-2002,07:00,52,R,ugm-3
22-01-2002,08:00,50,R,ugm-3
22-01-2002,09:00,56,R,ugm-3
22-01-2002,10:00,54,R,ugm-3
22-01-2002,11:00,60,R,ugm-3
22-01-2002,12:00,72,R,ugm-3
22-01-2002,13:00,72,R,ugm-3
22-01-2002,14:00,76,R,ugm-3
22-01-2002,15:00,74,R,ugm-3
22-01-2002,16:00,68,R,ugm-3
22-01-2002,17:00,64,R,ugm-3
22-01-2002,18:00,64,R,ugm-3
22-01-2002,19:00,42,R,ugm-3
22-01-2002,20:00,50,R,ugm-3
22-01-2002,21:00,60,R,ugm-3
22-01-2002,22:00,58,R,ugm-3
22-01-2002,23:00,50,R,ugm-3
22-01-2002,24:00,58,R,ugm-3
23-01-2002,01:00,62,R,ugm-3
23-01-2002,02:00,66,R,ugm-3
23-01-2002,03:00,66,R,ugm-3
23-01-2002,04:00,66,R,ugm-3
23-01-2002,05:00,66,R,ugm-3
23-01-2002,06:00,68,R,ugm-3
23-01-2002,07:00,72,R,ugm-3
23-01-2002,08:00,68,R,ugm-3
23-01-2002,09:00,68,R,ugm-3
23-01-2002,10:00,62,R,ugm-3
23-01-2002,11:00,54,R,ugm-3
23-01-2002,12:00,54,R,ugm-3
23-01-2002,13:00,56,R,ugm-3
23-01-2002,14:00,60,R,ugm-3
23-01-2002,15:00,60,R,ugm-3
23-01-2002,16:00,60,R,ugm-3
23-01-2002,17:00,64,R,ugm-3
23-01-2002,18:00,66,R,ugm-3
23-01-2002,19:00,68,R,ugm-3
23-01-2002,20:00,68,R,ugm-3
23-01-2002,21:00,66,R,ugm-3
23-01-2002,22:00,62,R,ugm-3
23-01-2002,23:00,64,R,ugm-3
23-01-2002,24:00,62,R,ugm-3
24-01-2002,01:00,60,R,ugm-3
24-01-2002,02:00,54,R,ugm-3
24-01-2002,03:00,46,R,ugm-3
24-01-2002,04:00,50,R,ugm-3
24-01-2002,05:00,68,R,ugm-3
24-01-2002,06:00,58,R,ugm-3
24-01-2002,07:00,54,R,ugm-3
24-01-2002,08:00,56,R,ugm-3
24-01-2002,09:00,48,R,ugm-3
24-01-2002,10:00,46,R,ugm-3
24-01-2002,11:00,44,R,ugm-3
24-01-2002,12:00,58,R,ugm-3
24-01-2002,13:00,58,R,ugm-3
24-01-2002,14:00,60,R,ugm-3
24-01-2002,15:00,60,R,ugm-3
24-01-2002,16:00,54,R,ugm-3
24-01-2002,17:00,56,R,ugm-3
24-01-2002,18:00,60,R,ugm-3
24-01-2002,19:00,70,R,ugm-3
24-01-2002,20:00,60,R,ugm-3
24-01-2002,21:00,42,R,ugm-3
24-01-2002,22:00,40,R,ugm-3
24-01-2002,23:00,44,R,ugm-3
24-01-2002,24:00,28,R,ugm-3
25-01-2002,01:00,24,R,ugm-3
25-01-2002,02:00,20,R,ugm-3
25-01-2002,03:00,20,R,ugm-3
25-01-2002,04:00,24,R,ugm-3
25-01-2002,05:00,22,R,ugm-3
25-01-2002,06:00,20,R,ugm-3
25-01-2002,07:00,24,R,ugm-3
25-01-2002,08:00,32,R,ugm-3
25-01-2002,09:00,50,R,ugm-3
25-01-2002,10:00,46,R,ugm-3
25-01-2002,11:00,32,R,ugm-3
25-01-2002,12:00,28,R,ugm-3
25-01-2002,13:00,34,R,ugm-3
25-01-2002,14:00,44,R,ugm-3
25-01-2002,15:00,44,R,ugm-3
25-01-2002,16:00,48,R,ugm-3
25-01-2002,17:00,50,R,ugm-3
25-01-2002,18:00,54,R,ugm-3
25-01-2002,19:00,58,R,ugm-3
25-01-2002,20:00,62,R,ugm-3
25-01-2002,21:00,62,R,ugm-3
25-01-2002,22:00,60,R,ugm-3
25-01-2002,23:00,62,R,ugm-3
25-01-2002,24:00,52,R,ugm-3
26-01-2002,01:00,62,R,ugm-3
26-01-2002,02:00,72,R,ugm-3
26-01-2002,03:00,76,R,ugm-3
26-01-2002,04:00,78,R,ugm-3
26-01-2002,05:00,78,R,ugm-3
26-01-2002,06:00,74,R,ugm-3
26-01-2002,07:00,74,R,ugm-3
26-01-2002,08:00,74,R,ugm-3
26-01-2002,09:00,76,R,ugm-3
26-01-2002,10:00,76,R,ugm-3
26-01-2002,11:00,68,R,ugm-3
26-01-2002,12:00,76,R,ugm-3
26-01-2002,13:00,78,R,ugm-3
26-01-2002,14:00,78,R,ugm-3
26-01-2002,15:00,82,R,ugm-3
26-01-2002,16:00,80,R,ugm-3
26-01-2002,17:00,82,R,ugm-3
26-01-2002,18:00,80,R,ugm-3
26-01-2002,19:00,78,R,ugm-3
26-01-2002,20:00,74,R,ugm-3
26-01-2002,21:00,74,R,ugm-3
26-01-2002,22:00,72,R,ugm-3
26-01-2002,23:00,72,R,ugm-3
26-01-2002,24:00,70,R,ugm-3
27-01-2002,01:00,60,R,ugm-3
27-01-2002,02:00,60,R,ugm-3
27-01-2002,03:00,54,R,ugm-3
27-01-2002,04:00,60,R,ugm-3
27-01-2002,05:00,60,R,ugm-3
27-01-2002,06:00,60,R,ugm-3
27-01-2002,07:00,60,R,ugm-3
27-01-2002,08:00,56,R,ugm-3
27-01-2002,09:00,54,R,ugm-3
27-01-2002,10:00,48,R,ugm-3
27-01-2002,11:00,50,R,ugm-3
27-01-2002,12:00,52,R,ugm-3
27-01-2002,13:00,58,R,ugm-3
27-01-2002,14:00,60,R,ugm-3
27-01-2002,15:00,62,R,ugm-3
27-01-2002,16:00,56,R,ugm-3
27-01-2002,17:00,46,R,ugm-3
27-01-2002,18:00,58,R,ugm-3
27-01-2002,19:00,72,R,ugm-3
27-01-2002,20:00,74,R,ugm-3
27-01-2002,21:00,78,R,ugm-3
27-01-2002,22:00,70,R,ugm-3
27-01-2002,23:00,70,R,ugm-3
27-01-2002,24:00,72,R,ugm-3
28-01-2002,01:00,68,R,ugm-3
28-01-2002,02:00,72,R,ugm-3
28-01-2002,03:00,84,R,ugm-3
28-01-2002,04:00,84,R,ugm-3
28-01-2002,05:00,82,R,ugm-3
28-01-2002,06:00,78,R,ugm-3
28-01-2002,07:00,78,R,ugm-3
28-01-2002,08:00,78,R,ugm-3
28-01-2002,09:00,74,R,ugm-3
28-01-2002,10:00,80,R,ugm-3
28-01-2002,11:00,82,R,ugm-3
28-01-2002,12:00,84,R,ugm-3
28-01-2002,13:00,80,R,ugm-3
28-01-2002,14:00,,,
28-01-2002,15:00,,,
28-01-2002,16:00,76,R,ugm-3
28-01-2002,17:00,76,R,ugm-3
28-01-2002,18:00,72,R,ugm-3
28-01-2002,19:00,72,R,ugm-3
28-01-2002,20:00,70,R,ugm-3
28-01-2002,21:00,68,R,ugm-3
28-01-2002,22:00,70,R,ugm-3
28-01-2002,23:00,74,R,ugm-3
28-01-2002,24:00,76,R,ugm-3
29-01-2002,01:00,76,R,ugm-3
29-01-2002,02:00,78,R,ugm-3
29-01-2002,03:00,78,R,ugm-3
29-01-2002,04:00,72,R,ugm-3
29-01-2002,05:00,72,R,ugm-3
29-01-2002,06:00,70,R,ugm-3
29-01-2002,07:00,64,R,ugm-3
29-01-2002,08:00,60,R,ugm-3
29-01-2002,09:00,56,R,ugm-3
29-01-2002,10:00,52,R,ugm-3
29-01-2002,11:00,54,R,ugm-3
29-01-2002,12:00,56,R,ugm-3
29-01-2002,13:00,58,R,ugm-3
29-01-2002,14:00,54,R,ugm-3
29-01-2002,15:00,58,R,ugm-3
29-01-2002,16:00,54,R,ugm-3
29-01-2002,17:00,66,R,ugm-3
29-01-2002,18:00,60,R,ugm-3
29-01-2002,19:00,,,
29-01-2002,20:00,,,
29-01-2002,21:00,58,R,ugm-3
29-01-2002,22:00,60,R,ugm-3
29-01-2002,23:00,44,R,ugm-3
29-01-2002,24:00,52,R,ugm-3
30-01-2002,01:00,52,R,ugm-3
30-01-2002,02:00,50,R,ugm-3
30-01-2002,03:00,52,R,ugm-3
30-01-2002,04:00,58,R,ugm-3
30-01-2002,05:00,60,R,ugm-3
30-01-2002,06:00,60,R,ugm-3
30-01-2002,07:00,50,R,ugm-3
30-01-2002,08:00,52,R,ugm-3
30-01-2002,09:00,54,R,ugm-3
30-01-2002,10:00,54,R,ugm-3
30-01-2002,11:00,52,R,ugm-3
30-01-2002,12:00,52,R,ugm-3
30-01-2002,13:00,54,R,ugm-3
30-01-2002,14:00,58,R,ugm-3
30-01-2002,15:00,54,R,ugm-3
30-01-2002,16:00,54,R,ugm-3
30-01-2002,17:00,48,R,ugm-3
30-01-2002,18:00,44,R,ugm-3
30-01-2002,19:00,46,R,ugm-3
30-01-2002,20:00,52,R,ugm-3
30-01-2002,21:00,44,R,ugm-3
30-01-2002,22:00,54,R,ugm-3
30-01-2002,23:00,52,R,ugm-3
30-01-2002,24:00,52,R,ugm-3
31-01-2002,01:00,62,R,ugm-3
31-01-2002,02:00,80,R,ugm-3
31-01-2002,03:00,78,R,ugm-3
31-01-2002,04:00,76,R,ugm-3
31-01-2002,05:00,70,R,ugm-3
31-01-2002,06:00,68,R,ugm-3
31-01-2002,07:00,62,R,ugm-3
31-01-2002,08:00,56,R,ugm-3
31-01-2002,09:00,46,R,ugm-3
31-01-2002,10:00,44,R,ugm-3
31-01-2002,11:00,56,R,ugm-3
31-01-2002,12:00,58,R,ugm-3
31-01-2002,13:00,60,R,ugm-3
31-01-2002,14:00,64,R,ugm-3
31-01-2002,15:00,68,R,ugm-3
31-01-2002,16:00,76,R,ugm-3
31-01-2002,17:00,74,R,ugm-3
31-01-2002,18:00,74,R,ugm-3
31-01-2002,19:00,72,R,ugm-3
31-01-2002,20:00,88,R,ugm-3
31-01-2002,21:00,76,R,ugm-3
31-01-2002,22:00,70,R,ugm-3
31-01-2002,23:00,70,R,ugm-3
31-01-2002,24:00,66,R,ugm-3
01-02-2002,01:00,66,R,ugm-3
01-02-2002,02:00,66,R,ugm-3
01-02-2002,03:00,60,R,ugm-3
01-02-2002,04:00,66,R,ugm-3
01-02-2002,05:00,68,R,ugm-3
01-02-2002,06:00,74,R,ugm-3
01-02-2002,07:00,76,R,ugm-3
01-02-2002,08:00,74,R,ugm-3
01-02-2002,09:00,68,R,ugm-3
01-02-2002,10:00,72,R,ugm-3
01-02-2002,11:00,76,R,ugm-3
01-02-2002,12:00,76,R,ugm-3
01-02-2002,13:00,76,R,ugm-3
01-02-2002,14:00,76,R,ugm-3
01-02-2002,15:00,76,R,ugm-3
01-02-2002,16:00,76,R,ugm-3
01-02-2002,17:00,74,R,ugm-3
01-02-2002,18:00,76,R,ugm-3
01-02-2002,19:00,78,R,ugm-3
01-02-2002,20:00,78,R,ugm-3
01-02-2002,21:00,80,R,ugm-3
01-02-2002,22:00,80,R,ugm-3
01-02-2002,23:00,80,R,ugm-3
01-02-2002,24:00,80,R,ugm-3
02-02-2002,01:00,80,R,ugm-3
02-02-2002,02:00,84,R,ugm-3
02-02-2002,03:00,84,R,ugm-3
02-02-2002,04:00,82,R,ugm-3
02-02-2002,05:00,82,R,ugm-3
02-02-2002,06:00,82,R,ugm-3
02-02-2002,07:00,82,R,ugm-3
02-02-2002,08:00,82,R,ugm-3
02-02-2002,09:00,80,R,ugm-3
02-02-2002,10:00,80,R,ugm-3
02-02-2002,11:00,78,R,ugm-3
02-02-2002,12:00,78,R,ugm-3
02-02-2002,13:00,78,R,ugm-3
02-02-2002,14:00,78,R,ugm-3
02-02-2002,15:00,78,R,ugm-3
02-02-2002,16:00,78,R,ugm-3
02-02-2002,17:00,78,R,ugm-3
02-02-2002,18:00,76,R,ugm-3
02-02-2002,19:00,68,R,ugm-3
02-02-2002,20:00,66,R,ugm-3
02-02-2002,21:00,76,R,ugm-3
02-02-2002,22:00,82,R,ugm-3
02-02-2002,23:00,82,R,ugm-3
02-02-2002,24:00,80,R,ugm-3
03-02-2002,01:00,82,R,ugm-3
03-02-2002,02:00,76,R,ugm-3
03-02-2002,03:00,76,R,ugm-3
03-02-2002,04:00,68,R,ugm-3
03-02-2002,05:00,56,R,ugm-3
03-02-2002,06:00,60,R,ugm-3
03-02-2002,07:00,60,R,ugm-3
03-02-2002,08:00,60,R,ugm-3
03-02-2002,09:00,66,R,ugm-3
03-02-2002,10:00,76,R,ugm-3
03-02-2002,11:00,80,R,ugm-3
03-02-2002,12:00,82,R,ugm-3
03-02-2002,13:00,80,R,ugm-3
03-02-2002,14:00,76,R,ugm-3
03-02-2002,15:00,72,R,ugm-3
03-02-2002,16:00,80,R,ugm-3
03-02-2002,17:00,76,R,ugm-3
03-02-2002,18:00,76,R,ugm-3
03-02-2002,19:00,74,R,ugm-3
03-02-2002,20:00,62,R,ugm-3
03-02-2002,21:00,56,R,ugm-3
03-02-2002,22:00,56,R,ugm-3
03-02-2002,23:00,58,R,ugm-3
03-02-2002,24:00,68,R,ugm-3
04-02-2002,01:00,70,R,ugm-3
04-02-2002,02:00,64,R,ugm-3
04-02-2002,03:00,66,R,ugm-3
04-02-2002,04:00,66,R,ugm-3
04-02-2002,05:00,68,R,ugm-3
04-02-2002,06:00,66,R,ugm-3
04-02-2002,07:00,66,R,ugm-3
04-02-2002,08:00,64,R,ugm-3
04-02-2002,09:00,58,R,ugm-3
04-02-2002,10:00,56,R,ugm-3
04-02-2002,11:00,56,R,ugm-3
04-02-2002,12:00,54,R,ugm-3
04-02-2002,13:00,54,R,ugm-3
04-02-2002,14:00,72,R,ugm-3
04-02-2002,15:00,74,R,ugm-3
04-02-2002,16:00,72,R,ugm-3
04-02-2002,17:00,68,R,ugm-3
04-02-2002,18:00,64,R,ugm-3
04-02-2002,19:00,60,R,ugm-3
04-02-2002,20:00,58,R,ugm-3
04-02-2002,21:00,54,R,ugm-3
04-02-2002,22:00,70,R,ugm-3
04-02-2002,23:00,70,R,ugm-3
04-02-2002,24:00,78,R,ugm-3
05-02-2002,01:00,76,R,ugm-3
05-02-2002,02:00,72,R,ugm-3
05-02-2002,03:00,70,R,ugm-3
05-02-2002,04:00,70,R,ugm-3
05-02-2002,05:00,74,R,ugm-3
05-02-2002,06:00,76,R,ugm-3
05-02-2002,07:00,74,R,ugm-3
05-02-2002,08:00,70,R,ugm-3
05-02-2002,09:00,68,R,ugm-3
05-02-2002,10:00,68,R,ugm-3
05-02-2002,11:00,68,R,ugm-3
05-02-2002,12:00,72,R,ugm-3
05-02-2002,13:00,72,R,ugm-3
05-02-2002,14:00,74,R,ugm-3
05-02-2002,15:00,72,R,ugm-3
05-02-2002,16:00,66,R,ugm-3
05-02-2002,17:00,66,R,ugm-3
05-02-2002,18:00,68,R,ugm-3